period_start,C,m1,H,J0,J1,J2,J3,J4,J5,JA,JB,JC,JD,JJ,JK,JN,#
2015-06-28 00:01:50,-0.00,0.02,0.00,24.48,28.00,30.41,4.58,26.32,1010.74,2036.03,3483.03,3312.79,3604.00,349.47,343.35,12.25,0000 0000 0000 0000 000000
2015-06-28 00:06:51,0.02,0.02,0.00,24.48,28.00,30.41,4.83,26.49,1010.76,2036.02,3483.00,3312.33,3604.00,350.58,344.40,12.28,0000 0000 0000 0000 000000
2015-06-28 00:11:53,0.00,0.02,0.00,24.49,28.00,30.41,4.83,26.43,1010.76,2036.02,3483.01,3312.25,3603.99,351.01,344.99,12.30,0000 0000 0000 0000 000000
2015-06-28 00:16:54,0.00,0.02,0.00,24.51,28.00,30.40,4.74,26.45,1010.76,2036.01,3483.00,3312.15,3603.98,349.95,344.00,12.33,0000 0000 0000 0000 000000
2015-06-28 00:21:56,-0.00,0.02,0.00,24.52,28.01,30.41,4.82,26.48,1010.76,2036.01,3483.00,3312.05,3603.96,350.38,344.17,12.36,0000 0000 0000 0000 000000
2015-06-28 00:26:57,0.00,0.02,0.00,24.52,28.02,30.41,4.76,26.39,1010.74,2036.00,3483.00,3312.02,3603.94,350.31,344.26,12.39,0000 0000 0000 0000 000000
2015-06-28 00:31:58,0.02,0.02,0.00,24.53,28.02,30.43,4.60,26.35,1010.72,2036.00,3482.93,3312.00,3603.51,349.07,343.07,12.42,0000 0000 0000 0000 000000
2015-06-28 00:37:00,0.01,0.02,0.00,24.54,28.02,30.41,4.73,26.51,1010.70,2036.00,3482.60,3312.00,3603.13,350.31,344.19,12.45,0000 0000 0000 0000 000000
2015-06-28 00:42:01,0.00,0.02,0.00,24.55,28.02,30.42,4.76,26.55,1010.66,2036.00,3482.30,3312.00,3603.03,350.08,343.83,12.48,0000 0000 0000 0000 000000
2015-06-28 00:47:03,0.00,0.02,0.00,24.57,28.04,30.42,4.84,26.52,1010.63,2036.00,3482.22,3312.00,3603.03,349.72,343.49,12.51,0000 0000 0000 0000 000000
2015-06-28 00:52:04,0.01,0.02,0.00,24.57,28.05,30.44,4.72,26.44,1010.61,2036.00,3482.17,3311.99,3603.01,350.18,344.03,12.54,0000 0000 0000 0000 000000
2015-06-28 00:57:05,0.00,0.02,0.00,24.57,28.05,30.44,4.75,26.58,1010.69,2036.00,3482.08,3311.98,3603.00,350.99,344.71,12.57,0000 0000 0000 0000 000000
2015-06-28 01:02:07,0.00,0.02,0.00,24.57,28.05,30.45,4.65,26.48,1010.69,2036.00,3482.03,3311.99,3603.00,349.18,342.98,12.60,0000 0000 0000 0000 000000
2015-06-28 01:07:08,0.00,0.02,0.00,24.59,28.07,30.45,4.70,26.52,1010.70,2036.00,3482.02,3311.98,3603.00,349.90,343.76,12.63,0000 0000 0000 0000 000000
2015-06-28 01:12:09,-0.00,0.02,0.00,24.59,28.07,30.46,4.82,26.51,1010.74,2036.00,3482.00,3311.95,3602.98,350.42,344.31,12.66,0000 0000 0000 0000 000000
2015-06-28 01:17:10,0.01,0.02,0.00,24.59,28.07,30.47,4.76,26.54,1010.72,2035.99,3482.00,3311.78,3602.95,350.01,343.83,12.69,0000 0000 0000 0000 000000
2015-06-28 01:22:12,0.02,0.02,0.00,24.61,28.08,30.47,4.72,26.60,1010.68,2035.98,3481.98,3311.33,3602.90,349.97,343.64,12.71,0000 0000 0000 0000 000000
2015-06-28 01:27:13,0.00,0.02,0.00,24.62,28.10,30.47,4.72,26.53,1010.61,2035.98,3481.96,3311.18,3602.73,350.51,344.40,12.74,0000 0000 0000 0000 000000
2015-06-28 01:32:14,0.00,0.02,0.00,24.62,28.10,30.48,4.77,26.51,1010.41,2035.98,3481.97,3311.18,3602.88,350.09,343.50,12.77,0000 0000 0000 0000 000000
2015-06-28 01:37:16,0.04,0.02,0.00,24.63,28.10,30.49,4.64,26.53,1010.38,2035.97,3481.57,3311.09,3602.51,349.98,343.67,12.80,0000 0000 0000 0000 000000
2015-06-28 01:42:17,0.01,0.02,0.00,24.65,28.11,30.51,4.71,26.57,1010.51,2035.97,3481.07,3311.00,3602.05,350.11,343.86,12.83,0000 0000 0000 0000 000000
2015-06-28 01:47:18,-0.00,0.02,0.00,24.66,28.12,30.51,4.63,26.47,1010.33,2035.94,3481.01,3311.00,3602.00,349.94,343.72,12.86,0000 0000 0000 0000 000000
2015-06-28 01:52:19,-0.01,0.02,0.00,24.67,28.12,30.50,4.73,26.48,1010.30,2035.92,3481.00,3311.00,3602.01,349.99,343.58,12.89,0000 0000 0000 0000 000000
2015-06-28 01:57:20,0.01,0.02,0.00,24.67,28.13,30.51,4.70,26.43,1010.28,2035.93,3481.00,3310.99,3602.00,349.25,342.85,12.92,0000 0000 0000 0000 000000
2015-06-28 02:02:22,-0.01,0.02,0.00,24.68,28.15,30.53,4.76,26.54,1010.28,2035.89,3481.00,3310.98,3602.00,350.49,344.09,12.95,0000 0000 0000 0000 000000
2015-06-28 02:07:23,-0.01,0.02,0.00,24.69,28.15,30.54,4.63,26.51,1010.27,2035.83,3481.00,3310.98,3601.99,349.80,343.41,12.98,0000 0000 0000 0000 000000
2015-06-28 02:12:25,-0.02,0.02,0.00,24.70,28.15,30.54,4.74,26.50,1010.27,2035.68,3481.00,3310.93,3601.97,350.33,343.77,13.01,0000 0000 0000 0000 000000
2015-06-28 02:17:26,-0.03,0.02,0.00,24.71,28.16,30.56,4.68,26.57,1010.27,2035.56,3480.98,3310.84,3601.90,350.24,343.66,13.04,0000 0000 0000 0000 000000
2015-06-28 02:22:27,0.02,0.02,0.00,24.72,28.17,30.56,4.71,26.52,1010.27,2035.47,3480.85,3310.51,3601.68,349.99,343.59,13.07,0000 0000 0000 0000 000000
2015-06-28 02:27:28,-0.01,0.02,0.00,24.72,28.17,30.56,4.69,26.38,1010.27,2035.17,3480.51,3310.14,3601.17,349.59,342.94,13.10,0000 0000 0000 0000 000000
2015-06-28 02:32:30,0.01,0.02,0.00,24.72,28.17,30.57,4.81,26.49,1010.27,2035.13,3480.09,3310.04,3601.02,350.70,344.28,13.12,0000 0000 0000 0000 000000
2015-06-28 02:37:31,-0.00,0.02,0.00,24.74,28.19,30.58,4.63,26.51,1010.27,2035.06,3480.01,3310.00,3601.00,349.38,342.97,13.15,0000 0000 0000 0000 000000
2015-06-28 02:42:32,-0.01,0.02,0.00,24.75,28.20,30.59,4.70,26.52,1010.27,2035.01,3480.00,3309.99,3601.00,350.14,343.57,13.18,0000 0000 0000 0000 000000
2015-06-28 02:47:33,-0.00,0.02,0.00,24.76,28.20,30.58,4.72,26.46,1010.27,2035.02,3480.00,3309.98,3600.98,350.14,343.61,13.21,0000 0000 0000 0000 000000
2015-06-28 02:52:34,0.00,0.02,0.00,24.79,28.21,30.60,4.67,26.40,1010.27,2035.01,3479.99,3309.99,3600.98,350.22,343.70,13.24,0000 0000 0000 0000 000000
2015-06-28 02:57:36,0.00,0.02,0.00,24.79,28.22,30.62,4.71,26.48,1010.27,2035.02,3479.90,3309.96,3600.94,350.01,343.54,13.27,0000 0000 0000 0000 000000
2015-06-28 03:02:37,0.03,0.02,0.00,24.80,28.22,30.63,4.63,26.38,1010.28,2035.00,3479.32,3309.81,3600.65,350.23,343.29,13.30,0000 0000 0000 0000 000000
2015-06-28 03:07:39,0.04,0.02,0.00,24.81,28.24,30.63,4.68,26.48,1010.29,2035.00,3479.06,3309.31,3600.08,350.20,343.62,13.33,0000 0000 0000 0000 000000
2015-06-28 03:12:40,0.00,0.02,0.00,24.82,28.25,30.63,4.72,26.38,1010.30,2035.00,3479.01,3309.13,3600.02,350.28,343.53,13.36,0000 0000 0000 0000 000000
2015-06-28 03:17:41,0.00,0.02,0.00,24.82,28.25,30.64,4.70,26.51,1010.28,2035.00,3479.00,3309.03,3600.00,349.89,343.34,13.39,0000 0000 0000 0000 000000
2015-06-28 03:22:42,0.00,0.02,0.00,24.82,28.27,30.65,4.58,26.53,1010.29,2035.00,3479.00,3309.01,3600.00,349.95,343.31,13.42,0000 0000 0000 0000 000000
2015-06-28 03:27:43,0.00,0.02,0.00,24.83,28.27,30.65,4.72,26.67,1010.30,2035.00,3478.96,3309.00,3600.00,349.61,343.08,13.45,0000 0000 0000 0000 000000
2015-06-28 03:32:45,0.00,0.02,0.00,24.85,28.28,30.68,4.66,26.77,1010.29,2034.99,3478.84,3309.00,3599.98,350.21,343.69,13.48,0000 0000 0000 0000 000000
2015-06-28 03:37:46,0.02,0.02,0.00,24.87,28.30,30.68,4.69,26.66,1010.31,2034.99,3478.46,3308.98,3599.78,349.66,343.03,13.50,0000 0000 0000 0000 000000
2015-06-28 03:42:47,0.02,0.02,0.00,24.87,28.30,30.67,4.62,26.62,1010.29,2034.98,3478.02,3308.95,3599.16,350.15,343.32,13.53,0000 0000 0000 0000 000000
2015-06-28 03:47:48,-0.00,0.02,0.00,24.87,28.31,30.69,4.74,26.72,1010.31,2034.96,3478.03,3308.90,3599.10,350.47,343.97,13.56,0000 0000 0000 0000 000000
2015-06-28 03:52:50,0.01,0.03,0.00,24.88,28.32,30.70,4.66,26.59,1010.33,2034.97,3478.01,3308.73,3599.02,349.54,342.60,13.59,0000 0000 0000 0000 000000
2015-06-28 03:57:51,0.01,0.03,0.00,24.90,28.33,30.72,4.72,26.63,1010.32,2034.96,3478.00,3308.31,3599.00,350.05,343.47,13.62,0000 0000 0000 0000 000000
2015-06-28 04:02:52,-0.01,0.03,0.00,24.90,28.35,30.72,4.74,26.68,1010.29,2034.91,3477.99,3308.07,3599.00,350.54,344.09,13.65,0000 0000 0000 0000 000000
2015-06-28 04:07:54,0.00,0.03,0.00,24.92,28.35,30.73,4.66,26.52,1010.28,2034.93,3477.95,3308.05,3599.00,350.52,343.69,13.68,0000 0000 0000 0000 000000
2015-06-28 04:12:55,-0.05,0.03,0.00,24.92,28.36,30.74,4.72,26.57,1010.28,2034.66,3477.76,3308.01,3598.95,349.80,343.04,13.71,0000 0000 0000 0000 000000
2015-06-28 04:17:56,0.00,0.02,0.00,24.93,28.37,30.75,4.75,26.63,1010.27,2034.48,3477.31,3308.00,3598.72,350.69,343.68,13.74,0000 0000 0000 0000 000000
2015-06-28 04:22:58,-0.00,0.02,0.00,24.93,28.38,30.76,4.64,26.52,1010.27,2034.35,3477.03,3307.99,3598.21,349.44,342.48,13.77,0000 0000 0000 0000 000000
2015-06-28 04:27:59,-0.03,0.02,0.00,24.94,28.40,30.78,4.65,26.48,1010.27,2034.14,3477.00,3307.96,3598.04,349.61,343.14,13.80,0000 0000 0000 0000 000000
2015-06-28 04:33:00,-0.01,0.02,0.00,24.95,28.40,30.79,4.71,26.56,1010.27,2034.07,3477.00,3307.91,3598.01,349.62,342.89,13.83,0000 0000 0000 0000 000000
2015-06-28 04:38:02,0.01,0.02,0.00,24.95,28.42,30.79,4.78,26.66,1010.27,2034.03,3476.94,3307.66,3598.00,350.04,343.29,13.86,0000 0000 0000 0000 000000
2015-06-28 04:43:03,0.02,0.02,0.00,24.96,28.42,30.81,4.67,26.49,1010.27,2034.01,3476.72,3307.07,3597.98,350.49,343.72,13.89,0000 0000 0000 0000 000000
2015-06-28 04:48:04,0.02,0.02,0.00,24.96,28.43,30.81,4.80,26.47,1010.27,2034.00,3476.38,3307.02,3597.89,350.56,343.72,13.91,0000 0000 0000 0000 000000
2015-06-28 04:53:06,0.01,0.03,0.00,24.97,28.45,30.81,4.84,26.53,1010.27,2034.01,3476.06,3307.00,3597.75,350.13,343.42,13.94,0000 0000 0000 0000 000000
2015-06-28 04:58:07,0.01,0.03,0.00,24.98,28.45,30.81,4.72,26.34,1010.27,2034.00,3476.02,3307.00,3597.37,350.27,343.46,13.97,0000 0000 0000 0000 000000
2015-06-28 05:03:08,0.00,0.03,0.00,25.00,28.47,30.82,4.58,26.38,1010.26,2034.00,3476.00,3307.00,3597.05,349.69,342.97,14.00,0000 0000 0000 0000 000000
2015-06-28 05:08:10,0.00,0.03,0.00,25.03,28.47,30.83,4.80,26.54,1010.27,2034.00,3475.99,3306.98,3597.01,350.53,343.70,14.03,0000 0000 0000 0000 000000
2015-06-28 05:13:11,0.00,0.03,0.00,25.06,28.48,30.84,4.78,26.44,1010.27,2034.00,3475.97,3306.96,3597.00,350.60,343.73,14.06,0000 0000 0000 0000 000000
2015-06-28 05:18:12,0.01,0.03,0.00,25.09,28.50,30.85,4.70,26.40,1010.26,2034.00,3475.91,3306.83,3597.00,349.63,342.88,14.09,0000 0000 0000 0000 000000
2015-06-28 05:23:13,0.04,0.03,0.00,25.11,28.51,30.84,4.73,26.49,1010.27,2033.99,3475.34,3306.31,3596.97,349.95,342.88,14.12,0000 0000 0000 0000 000000
2015-06-28 05:28:14,0.01,0.03,0.00,25.14,28.52,30.86,4.67,26.38,1010.27,2033.99,3475.04,3306.05,3596.80,350.02,342.97,14.15,0000 0000 0000 0000 000000
2015-06-28 05:33:16,0.01,0.03,0.00,25.15,28.54,30.88,4.74,26.44,1010.26,2033.98,3475.00,3306.01,3596.63,349.96,343.00,14.18,0000 0000 0000 0000 000000
2015-06-28 05:38:17,0.00,0.03,0.00,25.18,28.55,30.88,4.75,26.54,1010.27,2033.95,3474.95,3306.00,3596.06,350.37,343.40,14.21,0000 0000 0000 0000 000000
2015-06-28 05:43:19,0.02,0.03,0.00,25.20,28.57,30.90,4.77,26.44,1010.27,2033.95,3474.41,3305.98,3596.00,350.11,343.04,14.24,0000 0000 0000 0000 000000
2015-06-28 05:48:20,-0.00,0.03,0.00,25.22,28.58,30.92,4.73,26.41,1010.27,2033.84,3474.04,3305.71,3595.99,349.99,342.89,14.27,0000 0000 0000 0000 000000
2015-06-28 05:53:21,0.03,0.03,0.00,25.25,28.60,30.94,4.69,26.35,1010.27,2033.79,3474.00,3305.15,3595.86,350.11,343.03,14.30,0000 0000 0000 0000 000000
2015-06-28 05:58:22,-0.06,0.03,0.00,25.27,28.62,30.96,4.63,26.47,1010.17,2033.45,3473.99,3305.02,3595.29,349.66,342.58,14.32,0000 0000 0000 0000 000000
2015-06-28 06:03:23,-0.01,0.03,0.00,25.29,28.63,30.97,4.75,26.48,1010.13,2033.17,3473.94,3305.00,3595.03,350.35,343.26,14.35,0000 0000 0000 0000 000000
2015-06-28 06:08:25,0.00,0.03,0.00,25.32,28.65,30.99,4.77,26.43,1009.88,2033.09,3473.46,3305.00,3595.00,349.80,342.52,14.38,0000 0000 0000 0000 000000
2015-06-28 06:13:26,0.00,0.03,0.00,25.34,28.67,31.01,4.79,26.47,1009.81,2033.04,3473.15,3304.94,3594.99,350.06,342.59,14.41,0000 0000 0000 0000 000000
2015-06-28 06:18:27,0.01,0.03,0.00,25.36,28.69,31.02,4.68,26.41,1009.79,2033.01,3473.01,3304.69,3594.89,349.63,342.28,14.44,0000 0000 0000 0000 000000
2015-06-28 06:23:29,0.03,0.03,0.00,25.40,28.71,31.04,4.68,26.36,1009.79,2033.00,3473.00,3304.28,3594.34,349.82,342.39,14.47,0000 0000 0000 0000 000000
2015-06-28 06:28:30,0.00,0.03,0.00,25.42,28.73,31.06,4.67,26.42,1009.78,2033.00,3472.99,3304.05,3594.04,350.06,342.64,14.50,0000 0000 0000 0000 000000
2015-06-28 06:33:32,0.00,0.03,0.00,25.45,28.75,31.08,4.80,26.56,1009.78,2033.00,3472.89,3304.00,3594.00,350.77,343.49,14.53,0000 0000 0000 0000 000000
2015-06-28 06:38:33,0.01,0.03,0.00,25.48,28.77,31.10,4.70,26.55,1009.78,2032.98,3472.45,3304.00,3593.99,349.82,342.30,14.56,0000 0000 0000 0000 000000
2015-06-28 06:43:35,0.00,0.03,0.00,25.51,28.79,31.12,4.76,26.48,1009.78,2032.97,3472.08,3303.96,3593.83,350.66,343.07,14.59,0000 0000 0000 0000 000000
2015-06-28 06:48:36,0.02,0.03,0.00,25.55,28.81,31.13,4.71,26.42,1009.78,2032.97,3472.00,3303.77,3593.35,350.57,342.70,14.62,0000 0000 0000 0000 000000
2015-06-28 06:53:37,0.01,0.03,0.00,25.59,28.84,31.15,4.61,26.36,1009.78,2032.91,3471.98,3303.19,3593.07,349.94,342.44,14.65,0000 0000 0000 0000 000000
2015-06-28 06:58:38,-0.08,0.03,0.00,25.63,28.86,31.17,4.68,26.48,1009.77,2032.55,3471.90,3303.02,3593.00,349.86,342.08,14.68,0000 0000 0000 0000 000000
2015-06-28 07:03:39,-0.01,0.03,0.00,25.66,28.88,31.19,4.84,26.47,1009.69,2032.17,3471.53,3303.00,3592.98,350.51,342.75,14.71,0000 0000 0000 0000 000000
2015-06-28 07:08:40,-0.00,0.03,0.00,25.71,28.91,31.21,4.61,26.39,1009.75,2032.06,3471.13,3302.98,3592.61,350.32,342.38,14.73,0000 0000 0000 0000 000000
2015-06-28 07:13:41,0.02,0.03,0.00,25.74,28.93,31.23,4.68,26.48,1009.76,2032.01,3471.00,3302.66,3592.05,349.87,341.79,14.76,0000 0000 0000 0000 000000
2015-06-28 07:18:43,0.01,0.03,0.00,25.79,28.96,31.25,4.74,26.55,1009.78,2032.00,3470.85,3302.08,3592.00,350.33,342.38,14.79,0000 0000 0000 0000 000000
2015-06-28 07:23:44,0.02,0.03,0.00,25.83,28.98,31.28,4.76,26.52,1009.78,2032.00,3470.38,3302.00,3591.96,350.55,342.58,14.82,0000 0000 0000 0000 000000
2015-06-28 07:28:45,0.02,0.03,0.00,25.88,29.01,31.30,4.69,26.48,1009.78,2032.00,3470.06,3301.99,3591.39,349.55,341.54,14.85,0000 0000 0000 0000 000000
2015-06-28 07:33:46,0.02,0.03,0.00,25.91,29.04,31.33,4.64,26.39,1009.78,2031.97,3469.99,3301.72,3591.03,349.57,341.86,14.88,0000 0000 0000 0000 000000
2015-06-28 07:38:48,-0.03,0.03,0.00,25.95,29.06,31.36,4.62,26.43,1009.78,2031.72,3469.59,3301.06,3590.97,349.93,341.78,14.91,0000 0000 0000 0000 000000
2015-06-28 07:43:49,-0.01,0.03,0.00,26.00,29.09,31.38,4.72,26.50,1009.78,2031.35,3469.02,3301.00,3590.57,350.32,342.02,14.94,0000 0000 0000 0000 000000
2015-06-28 07:48:50,-0.02,0.03,0.00,26.03,29.12,31.41,4.64,26.39,1009.78,2031.14,3469.00,3300.96,3590.08,349.74,341.53,14.97,0000 0000 0000 0000 000000
2015-06-28 07:53:51,0.01,0.03,0.00,26.06,29.15,31.44,4.72,26.43,1009.78,2031.05,3468.94,3300.67,3590.00,350.78,342.46,15.00,0000 0000 0000 0000 000000
2015-06-28 07:58:53,0.03,0.03,0.00,26.09,29.18,31.47,4.71,26.41,1009.77,2031.01,3468.38,3300.09,3589.95,350.03,341.81,15.03,0000 0000 0000 0000 000000
2015-06-28 08:03:54,0.02,0.03,0.00,26.12,29.21,31.49,4.62,26.34,1009.78,2031.00,3468.02,3300.00,3589.43,349.47,341.27,15.06,0000 0000 0000 0000 000000
2015-06-28 08:08:55,0.00,0.03,0.00,26.15,29.24,31.53,4.74,26.38,1009.78,2030.99,3468.00,3299.98,3589.03,350.46,342.18,15.09,0000 0000 0000 0000 000000
2015-06-28 08:13:56,0.01,0.03,0.00,26.18,29.27,31.56,4.73,26.40,1009.77,2030.95,3467.94,3299.59,3588.98,350.46,341.94,15.11,0000 0000 0000 0000 000000
2015-06-28 08:18:57,0.02,0.03,0.00,26.22,29.30,31.59,4.67,26.43,1009.77,2030.71,3467.23,3299.08,3588.61,350.85,342.53,15.14,0000 0000 0000 0000 000000
2015-06-28 08:23:58,-0.07,0.03,0.00,26.28,29.33,31.62,4.62,26.32,1009.73,2030.19,3467.00,3298.99,3588.02,349.50,341.06,15.17,0000 0000 0000 0000 000000
2015-06-28 08:29:00,-0.01,0.03,0.00,26.33,29.36,31.65,4.73,26.29,1009.75,2030.10,3466.93,3298.91,3588.00,350.30,341.80,15.20,0000 0000 0000 0000 000000
2015-06-28 08:34:01,0.06,0.03,0.00,26.36,29.40,31.69,4.72,26.39,1009.76,2030.02,3466.26,3298.28,3587.64,350.00,341.37,15.23,0000 0000 0000 0000 000000
2015-06-28 08:39:02,0.01,0.03,0.00,26.41,29.43,31.71,4.53,26.38,1009.76,2030.00,3466.01,3298.00,3587.05,349.34,340.90,15.26,0000 0000 0000 0000 000000
2015-06-28 08:44:03,0.00,0.03,0.00,26.46,29.46,31.74,4.71,26.33,1009.77,2030.00,3465.89,3297.96,3586.98,349.58,341.00,15.29,0000 0000 0000 0000 000000
2015-06-28 08:49:04,0.05,0.03,0.00,26.49,29.49,31.78,4.59,26.31,1009.77,2030.00,3465.16,3297.52,3586.80,349.73,341.06,15.32,0000 0000 0000 0000 000000
2015-06-28 08:54:06,0.01,0.04,0.00,26.55,29.53,31.81,4.71,26.38,1009.78,2029.94,3465.00,3297.07,3586.21,350.25,341.38,15.35,0000 0000 0000 0000 000000
2015-06-28 08:59:07,-0.05,0.04,0.00,26.59,29.56,31.84,4.60,26.30,1009.78,2029.63,3465.00,3297.00,3586.00,349.89,341.39,15.38,0000 0000 0000 0000 000000
2015-06-28 09:04:08,-0.03,0.03,0.00,26.64,29.60,31.88,4.65,26.45,1009.78,2029.15,3464.46,3296.83,3585.75,350.16,341.44,15.41,0000 0000 0000 0000 000000
2015-06-28 09:09:10,0.04,0.03,0.00,26.68,29.63,31.91,4.65,26.65,1009.77,2029.01,3464.02,3296.13,3585.05,349.76,340.96,15.44,0000 0000 0000 0000 000000
2015-06-28 09:14:11,0.00,0.03,0.00,26.72,29.67,31.95,4.69,26.57,1009.78,2029.00,3463.98,3296.00,3584.99,349.99,341.11,15.47,0000 0000 0000 0000 000000
2015-06-28 09:19:13,0.04,0.03,0.00,26.76,29.71,31.98,4.73,26.46,1009.77,2028.99,3463.42,3295.93,3584.63,350.11,340.99,15.50,0000 0000 0000 0000 000000
2015-06-28 09:24:14,0.03,0.04,0.00,26.81,29.74,32.02,4.75,26.51,1009.75,2028.95,3463.01,3295.17,3584.02,350.64,341.58,15.52,0000 0000 0000 0000 000000
2015-06-28 09:29:15,-0.08,0.04,0.00,26.85,29.77,32.05,4.68,26.56,1009.72,2028.53,3462.87,3295.00,3583.96,350.34,341.31,15.55,0000 0000 0000 0000 000000
2015-06-28 09:34:17,0.01,0.03,0.00,26.90,29.81,32.09,4.63,26.59,1009.75,2028.12,3462.25,3294.83,3583.47,350.26,340.90,15.58,0000 0000 0000 0000 000000
2015-06-28 09:39:18,0.03,0.04,0.00,26.95,29.85,32.13,4.59,26.74,1009.77,2028.02,3461.99,3294.15,3583.03,349.36,340.25,15.61,0000 0000 0000 0000 000000
2015-06-28 09:44:19,0.01,0.04,0.00,27.00,29.89,32.17,4.65,26.57,1009.78,2028.00,3461.68,3294.00,3582.96,350.06,340.76,15.64,0000 0000 0000 0000 000000
2015-06-28 09:49:21,0.05,0.04,0.00,27.05,29.93,32.20,4.64,26.59,1009.78,2027.99,3461.08,3293.70,3582.44,349.93,340.57,15.67,0000 0000 0000 0000 000000
2015-06-28 09:54:22,0.01,0.04,0.00,27.09,29.97,32.25,4.69,26.61,1009.78,2027.92,3460.98,3293.03,3582.00,349.52,340.18,15.70,0000 0000 0000 0000 000000
2015-06-28 09:59:23,-0.02,0.04,0.00,27.14,30.01,32.28,4.63,26.63,1009.78,2027.61,3460.36,3292.99,3581.85,350.23,340.67,15.73,0000 0000 0000 0000 000000
2015-06-28 10:04:25,-0.02,0.04,0.00,27.19,30.05,32.32,4.67,26.63,1009.78,2027.10,3460.01,3292.47,3581.09,349.94,340.38,15.76,0000 0000 0000 0000 000000
2015-06-28 10:09:26,0.01,0.04,0.00,27.23,30.09,32.37,4.63,26.60,1009.78,2027.00,3459.83,3292.02,3580.99,350.26,340.61,15.79,0000 0000 0000 0000 000000
2015-06-28 10:14:27,0.04,0.04,0.00,27.28,30.13,32.42,4.73,26.69,1009.78,2027.00,3459.13,3291.98,3580.47,350.40,340.73,15.82,0000 0000 0000 0000 000000
2015-06-28 10:19:28,0.03,0.04,0.00,27.34,30.18,32.46,4.66,26.65,1009.79,2026.98,3458.98,3291.45,3580.02,350.40,340.68,15.85,0000 0000 0000 0000 000000
2015-06-28 10:24:29,-0.02,0.04,0.00,27.39,30.22,32.51,4.61,26.53,1009.78,2026.81,3458.65,3291.01,3579.84,349.67,340.09,15.88,0000 0000 0000 0000 000000
2015-06-28 10:29:30,-0.05,0.04,0.00,27.44,30.27,32.56,4.65,26.57,1009.79,2026.25,3458.04,3290.94,3579.10,349.82,340.08,15.91,0000 0000 0000 0000 000000
2015-06-28 10:34:32,0.02,0.04,0.00,27.49,30.32,32.60,4.69,26.54,1009.79,2026.08,3457.93,3290.29,3578.99,349.84,340.12,15.93,0000 0000 0000 0000 000000
2015-06-28 10:39:33,0.04,0.04,0.00,27.54,30.36,32.66,4.73,26.64,1009.79,2026.00,3457.18,3289.98,3578.30,350.35,340.64,15.96,0000 0000 0000 0000 000000
2015-06-28 10:44:34,0.03,0.04,0.00,27.60,30.41,32.72,4.69,26.57,1009.78,2025.98,3456.96,3289.40,3577.99,350.24,340.41,15.99,0000 0000 0000 0000 000000
2015-06-28 10:49:35,-0.01,0.04,0.00,27.65,30.46,32.77,4.66,26.47,1009.78,2025.73,3456.33,3289.01,3577.40,350.09,340.23,16.02,0000 0000 0000 0000 000000
2015-06-28 10:54:37,-0.05,0.04,0.00,27.71,30.51,32.84,4.68,26.48,1009.78,2025.30,3456.00,3288.85,3577.01,350.33,340.37,16.05,0000 0000 0000 0000 000000
2015-06-28 10:59:38,0.02,0.04,0.00,27.77,30.56,32.91,4.60,26.41,1009.79,2025.06,3455.88,3288.15,3576.74,349.99,339.97,16.08,0000 0000 0000 0000 000000
2015-06-28 11:04:39,0.03,0.04,0.00,27.82,30.61,32.98,4.63,26.48,1009.79,2025.00,3455.22,3288.00,3576.08,349.82,339.54,16.11,0000 0000 0000 0000 000000
2015-06-28 11:09:41,0.01,0.04,0.00,27.88,30.66,33.05,4.65,26.49,1009.79,2024.99,3455.00,3287.78,3575.97,350.14,339.96,16.14,0000 0000 0000 0000 000000
2015-06-28 11:14:42,0.05,0.04,0.00,27.94,30.71,33.10,4.69,26.38,1009.79,2024.92,3454.58,3287.06,3575.26,350.15,339.82,16.17,0000 0000 0000 0000 000000
2015-06-28 11:19:43,-0.10,0.04,0.00,27.98,30.76,33.17,4.65,26.48,1009.79,2024.26,3454.02,3286.89,3574.94,349.89,339.45,16.20,0000 0000 0000 0000 000000
2015-06-28 11:24:44,0.05,0.04,0.00,28.03,30.81,33.22,4.68,26.45,1009.80,2024.02,3453.75,3286.24,3574.30,350.21,339.79,16.23,0000 0000 0000 0000 000000
2015-06-28 11:29:46,0.02,0.04,0.00,28.08,30.86,33.26,4.67,26.40,1009.80,2024.00,3453.05,3285.99,3573.99,350.21,339.85,16.26,0000 0000 0000 0000 000000
2015-06-28 11:34:47,0.07,0.04,0.00,28.11,30.91,33.32,4.59,26.43,1009.81,2023.98,3452.66,3285.44,3573.39,349.87,339.33,16.29,0000 0000 0000 0000 000000
2015-06-28 11:39:48,-0.04,0.04,0.00,28.15,30.95,33.36,4.70,26.50,1009.80,2023.69,3452.02,3285.00,3572.94,349.90,339.49,16.32,0000 0000 0000 0000 000000
2015-06-28 11:44:49,-0.03,0.04,0.00,28.19,31.00,33.40,4.62,26.45,1009.80,2023.18,3451.80,3284.66,3572.39,349.46,338.95,16.34,0000 0000 0000 0000 000000
2015-06-28 11:49:50,0.03,0.04,0.00,28.22,31.04,33.44,4.61,26.44,1009.84,2023.01,3451.06,3284.03,3572.00,350.08,339.51,16.37,0000 0000 0000 0000 000000
2015-06-28 11:54:51,0.01,0.04,0.00,28.24,31.09,33.49,4.55,26.36,1009.82,2023.00,3450.94,3283.98,3571.68,349.96,339.39,16.40,0000 0000 0000 0000 000000
2015-06-28 11:59:52,0.05,0.04,0.00,28.26,31.13,33.50,4.67,26.43,1009.81,2022.98,3450.32,3283.52,3571.07,350.00,339.43,16.43,0000 0000 0000 0000 000000
2015-06-28 12:04:54,-0.02,0.04,0.00,28.27,31.17,33.54,4.67,26.38,1009.80,2022.84,3449.99,3283.01,3570.87,350.35,339.65,16.46,0000 0000 0000 0000 000000
2015-06-28 12:09:55,-0.04,0.04,0.00,28.28,31.21,33.56,4.66,26.36,1009.80,2022.34,3449.72,3282.92,3570.23,349.85,338.99,16.49,0000 0000 0000 0000 000000
2015-06-28 12:14:56,0.02,0.04,0.00,28.29,31.25,33.58,4.67,26.45,1009.79,2022.04,3449.07,3282.24,3570.00,349.91,339.25,16.52,0000 0000 0000 0000 000000
2015-06-28 12:19:57,0.00,0.04,0.00,28.30,31.28,33.60,4.65,26.38,1009.78,2022.00,3449.00,3282.01,3569.82,350.55,340.00,16.55,0000 0000 0000 0000 000000
2015-06-28 12:24:58,0.02,0.04,0.00,28.31,31.31,33.63,4.61,26.40,1009.78,2022.00,3448.84,3281.97,3569.18,349.90,339.12,16.58,0000 0000 0000 0000 000000
2015-06-28 12:29:59,0.03,0.04,0.00,28.32,31.35,33.66,4.63,26.39,1009.79,2021.97,3448.12,3281.49,3569.00,350.02,339.28,16.61,0000 0000 0000 0000 000000
2015-06-28 12:35:01,-0.02,0.04,0.00,28.33,31.38,33.68,4.62,26.36,1009.80,2021.79,3448.00,3281.01,3568.79,350.09,339.50,16.64,0000 0000 0000 0000 000000
2015-06-28 12:40:02,-0.06,0.04,0.00,28.35,31.41,33.71,4.62,26.40,1009.80,2021.19,3447.52,3280.97,3568.08,349.87,338.98,16.67,0000 0000 0000 0000 000000
2015-06-28 12:45:03,0.02,0.04,0.00,28.37,31.44,33.73,4.68,26.38,1009.80,2021.06,3447.09,3280.76,3568.00,349.94,339.21,16.70,0000 0000 0000 0000 000000
2015-06-28 12:50:05,0.01,0.04,0.00,28.39,31.46,33.76,4.69,26.30,1009.79,2021.00,3447.01,3280.27,3567.97,350.20,339.24,16.73,0000 0000 0000 0000 000000
2015-06-28 12:55:06,0.03,0.04,0.00,28.41,31.50,33.78,4.61,26.32,1009.79,2021.00,3446.89,3280.01,3567.38,349.63,338.79,16.76,0000 0000 0000 0000 000000
2015-06-28 13:00:07,0.02,0.04,0.00,28.43,31.52,33.81,4.56,26.26,1009.78,2020.98,3446.15,3279.97,3567.01,349.55,338.85,16.78,0000 0000 0000 0000 000000